This is the latest recevied weather packets stored in our database for station/object N9DMT-13. If no packets are shown the sender has not sent any weather packets the latest 10 day(s).
| Time | Temp. | Humidity | Pressure | Rain* | Wind** | Luminosity | Snow |
|---|---|---|---|---|---|---|---|
| 1778215065 | 1.11° C | 83% | 979.9 hPa | 0 mm | - | - | - |
| 1778214764 | 1.11° C | 81% | 979.9 hPa | 0 mm | - | - | - |
| 1778214464 | 1.11° C | 80% | 979.9 hPa | 0 mm | - | - | - |
| 1778214163 | 1.67° C | 80% | 979.9 hPa | 0 mm | - | - | - |
| 1778213862 | 1.67° C | 80% | 980 hPa | 0 mm | - | - | - |
| 1778213561 | 2.22° C | 79% | 979.7 hPa | 0 mm | - | - | - |
| 1778213262 | 2.22° C | 78% | 979.7 hPa | 0 mm | - | - | - |
| 1778212960 | 2.22° C | 78% | 979.9 hPa | 0 mm | - | - | - |
| 1778212659 | 2.22° C | 79% | 979.8 hPa | 0 mm | - | - | - |
| 1778212358 | 2.78° C | 77% | 979.8 hPa | 0 mm | - | - | - |
| 1778212057 | 2.78° C | 76% | 979.8 hPa | 0 mm | - | - | - |
| 1778211756 | 2.78° C | 75% | 979.8 hPa | 0 mm | - | - | - |
| 1778211455 | 2.78° C | 75% | 979.7 hPa | 0 mm | - | - | - |
| 1778211154 | 2.78° C | 76% | 979.7 hPa | 0 mm | - | - | - |
| 1778210854 | 3.33° C | 76% | 979.7 hPa | 0 mm | - | - | - |
| 1778210553 | 3.33° C | 75% | 979.6 hPa | 0 mm | - | - | - |
| 1778210251 | 3.33° C | 74% | 979.6 hPa | 0 mm | - | - | - |
| 1778209951 | 3.89° C | 73% | 979.7 hPa | 0 mm | - | - | - |
| 1778209650 | 3.89° C | 70% | 979.7 hPa | 0 mm | - | - | - |
| 1778209349 | 3.89° C | 73% | 979.5 hPa | 0 mm | - | - | - |
| 1778209048 | 4.44° C | 72% | 979.5 hPa | 0 mm | - | - | - |
| 1778208747 | 4.44° C | 69% | 979.2 hPa | 0 mm | - | - | - |
| 1778208446 | 4.44° C | 68% | 979.4 hPa | 0 mm | - | - | - |
| 1778208146 | 5° C | 68% | 979.3 hPa | 0 mm | - | - | - |
| 1778207845 | 5° C | 68% | 979.1 hPa | 0 mm | - | - | - |
* Rain latest hour (hover to see other rain measurements)
** Current wind speed in m/s (hover to see current wind gust speed)